When you browse on this site, cookies collect data to enhance your experience and personalize the content and advertising you see.
Visit our Privacy Policy to learn more. By continuing to use the site, you agree to this use of cookies and data.
  • In United Kingdom
  • List of Countries
  • For 7 days
  • Water Temperature
  • Satellite Maps
  • Weather Map
  • Weather Widgets
  • user-avatar
    Login

    Hourly Weather Asuan

    Today, 21 May, Tuesday

    Time Temperature Precipitation Wind Pressure Humidity
    00:00 +34°C° 0 mm 4 mps 740 mmHg 13%
    01:00 +33°C° 0 mm 4 mps 740 mmHg 15%
    02:00 +32°C° 0 mm 4 mps 740 mmHg 17%
    03:00 +31°C° 0 mm 3 mps 740 mmHg 21%
    04:00 +30°C° 0 mm 3 mps 740 mmHg 25%
    05:00 +29°C° 0 mm 3 mps 741 mmHg 29%
    06:00 +31°C° 0 mm 3 mps 741 mmHg 25%
    07:00 +34°C° 0 mm 4 mps 741 mmHg 22%
    08:00 +35°C° 0 mm 4 mps 742 mmHg 19%
    09:00 +37°C° 0 mm 4 mps 742 mmHg 17%
    10:00 +38°C° 0 mm 4 mps 742 mmHg 14%
    11:00 +41°C° 0 mm 4 mps 742 mmHg 11%
    12:00 +42°C° 0 mm 4 mps 741 mmHg 10%
    13:00 +42°C° 0 mm 4 mps 741 mmHg 9%
    14:00 +43°C° 0 mm 3 mps 740 mmHg 8%
    15:00 +43°C° 0 mm 3 mps 740 mmHg 7%
    16:00 +43°C° 0 mm 3 mps 740 mmHg 7%
    17:00 +42°C° 0 mm 2 mps 739 mmHg 7%
    18:00 +40°C° 0 mm 2 mps 740 mmHg 7%
    19:00 +36°C° 0 mm 1 mps 740 mmHg 8%
    20:00 +34°C° 0 mm 1 mps 740 mmHg 9%
    21:00 +35°C° 0 mm 2 mps 741 mmHg 10%
    22:00 +35°C° 0 mm 3 mps 741 mmHg 11%
    23:00 +35°C° 0 mm 4 mps 742 mmHg 13%

    Tomorrow, 22 May, Wednesday

    Time Temperature Precipitation Wind Pressure Humidity
    00:00 +34°C° 0 mm 4 mps 741 mmHg 15%
    01:00 +33°C° 0 mm 3 mps 741 mmHg 17%
    02:00 +31°C° 0 mm 3 mps 741 mmHg 19%
    03:00 +31°C° 0 mm 3 mps 741 mmHg 21%
    04:00 +30°C° 0 mm 3 mps 741 mmHg 23%
    05:00 +30°C° 0 mm 3 mps 741 mmHg 24%
    06:00 +31°C° 0 mm 3 mps 742 mmHg 22%
    07:00 +34°C° 0 mm 3 mps 742 mmHg 20%
    08:00 +35°C° 0 mm 3 mps 743 mmHg 18%
    09:00 +37°C° 0 mm 4 mps 742 mmHg 15%
    10:00 +41°C° 0 mm 5 mps 742 mmHg 12%
    11:00 +44°C° 0 mm 6 mps 742 mmHg 9%
    12:00 +45°C° 0 mm 6 mps 741 mmHg 8%
    13:00 +46°C° 0 mm 6 mps 741 mmHg 8%
    14:00 +47°C° 0 mm 6 mps 740 mmHg 7%
    15:00 +47°C° 0 mm 6 mps 740 mmHg 7%
    16:00 +46°C° 0 mm 5 mps 739 mmHg 7%
    17:00 +46°C° 0 mm 5 mps 739 mmHg 6%
    18:00 +43°C° 0 mm 4 mps 739 mmHg 7%
    19:00 +40°C° 0 mm 3 mps 740 mmHg 9%
    20:00 +38°C° 0 mm 3 mps 740 mmHg 10%
    21:00 +37°C° 0 mm 3 mps 740 mmHg 11%
    22:00 +37°C° 0 mm 3 mps 741 mmHg 12%
    23:00 +36°C° 0 mm 3 mps 741 mmHg 14%

    Day after tomorrow, 23 May, Thursday

    Time Temperature Precipitation Wind Pressure Humidity
    00:00 +35°C° 0 mm 2 mps 741 mmHg 15%
    01:00 +34°C° 0 mm 2 mps 740 mmHg 15%
    02:00 +32°C° 0 mm 1 mps 740 mmHg 16%
    03:00 +32°C° 0 mm 2 mps 740 mmHg 16%
    04:00 +34°C° 0 mm 3 mps 740 mmHg 16%
    05:00 +34°C° 0 mm 3 mps 740 mmHg 16%
    06:00 +35°C° 0 mm 4 mps 741 mmHg 15%
    07:00 +37°C° 0 mm 4 mps 741 mmHg 14%
    08:00 +40°C° 0 mm 4 mps 741 mmHg 13%
    09:00 +41°C° 0 mm 4 mps 741 mmHg 12%
    10:00 +43°C° 0 mm 4 mps 741 mmHg 11%
    11:00 +45°C° 0 mm 4 mps 741 mmHg 9%
    12:00 +45°C° 0 mm 3 mps 740 mmHg 9%
    13:00 +46°C° 0 mm 3 mps 739 mmHg 9%
    14:00 +46°C° 0 mm 2 mps 739 mmHg 9%
    15:00 +46°C° 0 mm 2 mps 738 mmHg 9%
    16:00 +46°C° 0 mm 2 mps 738 mmHg 9%
    17:00 +45°C° 0 mm 1 mps 738 mmHg 8%
    18:00 +43°C° 0 mm 2 mps 738 mmHg 9%
    19:00 +42°C° 0 mm 2 mps 738 mmHg 10%
    20:00 +40°C° 0 mm 2 mps 739 mmHg 10%
    21:00 +39°C° 0 mm 3 mps 739 mmHg 11%
    22:00 +40°C° 0 mm 4 mps 739 mmHg 12%
    23:00 +40°C° 0 mm 5 mps 739 mmHg 13%

    24 May, Friday

    Time Temperature Precipitation Wind Pressure Humidity
    00:00 +37°C° 0 mm 3 mps 739 mmHg 15%
    01:00 +36°C° 0 mm 2 mps 739 mmHg 16%
    02:00 +34°C° 0 mm 1 mps 739 mmHg 18%
    03:00 +34°C° 0 mm 1 mps 739 mmHg 18%
    04:00 +33°C° 0 mm 1 mps 739 mmHg 19%
    05:00 +33°C° 0 mm 1 mps 739 mmHg 19%
    06:00 +35°C° 0 mm 2 mps 740 mmHg 18%
    07:00 +37°C° 0 mm 3 mps 740 mmHg 17%
    08:00 +40°C° 0 mm 4 mps 741 mmHg 15%
    09:00 +42°C° 0 mm 4 mps 740 mmHg 14%
    10:00 +43°C° 0 mm 4 mps 740 mmHg 13%
    11:00 +46°C° 0 mm 5 mps 740 mmHg 12%
    12:00 +47°C° 0 mm 4 mps 739 mmHg 12%
    13:00 +47°C° 0 mm 4 mps 739 mmHg 11%
    14:00 +48°C° 0 mm 4 mps 738 mmHg 11%
    15:00 +48°C° 0 mm 4 mps 738 mmHg 10%
    16:00 +48°C° 0 mm 4 mps 738 mmHg 10%
    17:00 +48°C° 0 mm 4 mps 738 mmHg 10%
    18:00 +45°C° 0 mm 4 mps 738 mmHg 12%
    19:00 +43°C° 0 mm 4 mps 738 mmHg 14%
    20:00 +42°C° 0 mm 4 mps 739 mmHg 15%
    21:00 +41°C° 0 mm 4 mps 739 mmHg 18%
    22:00 +40°C° 0 mm 4 mps 739 mmHg 20%
    23:00 +39°C° 0 mm 5 mps 739 mmHg 22%

    25 May, Saturday

    Time Temperature Precipitation Wind Pressure Humidity
    00:00 +37°C° 0 mm 4 mps 739 mmHg 24%
    01:00 +36°C° 0 mm 3 mps 739 mmHg 25%
    02:00 +35°C° 0 mm 2 mps 739 mmHg 27%
    03:00 +34°C° 0 mm 2 mps 739 mmHg 28%
    04:00 +34°C° 0 mm 2 mps 739 mmHg 29%
    05:00 +32°C° 0 mm 2 mps 739 mmHg 30%
    06:00 +35°C° 0 mm 2 mps 740 mmHg 27%
    07:00 +37°C° 0 mm 2 mps 740 mmHg 24%
    08:00 +39°C° 0 mm 2 mps 741 mmHg 21%
    09:00 +41°C° 0 mm 2 mps 740 mmHg 19%
    10:00 +43°C° 0 mm 3 mps 740 mmHg 17%
    11:00 +44°C° 0 mm 3 mps 740 mmHg 15%
    12:00 +45°C° 0 mm 4 mps 739 mmHg 14%
    13:00 +47°C° 0 mm 4 mps 739 mmHg 13%
    14:00 +48°C° 0 mm 5 mps 738 mmHg 11%
    15:00 +48°C° 0 mm 5 mps 738 mmHg 11%
    16:00 +48°C° 0 mm 5 mps 738 mmHg 11%
    17:00 +48°C° 0 mm 5 mps 737 mmHg 11%
    18:00 +46°C° 0.1 mm 8 mps 738 mmHg 14%
    19:00 +44°C° 0.1 mm 10 mps 738 mmHg 17%
    20:00 +42°C° 0.1 mm 13 mps 739 mmHg 20%
    21:00 +42°C° 0.2 mm 10 mps 739 mmHg 19%
    22:00 +41°C° 0.2 mm 6 mps 739 mmHg 18%
    23:00 +40°C° 0.2 mm 3 mps 739 mmHg 17%

    26 May, Sunday

    Time Temperature Precipitation Wind Pressure Humidity
    00:00 +39°C° 0 mm 3 mps 739 mmHg 21%
    01:00 +38°C° 0 mm 4 mps 739 mmHg 26%
    02:00 +36°C° 0 mm 5 mps 738 mmHg 30%
    03:00 +36°C° 0 mm 4 mps 739 mmHg 33%
    04:00 +35°C° 0 mm 4 mps 739 mmHg 36%
    05:00 +34°C° 0 mm 4 mps 739 mmHg 39%
    06:00 +35°C° 0 mm 3 mps 739 mmHg 36%
    07:00 +37°C° 0 mm 3 mps 740 mmHg 33%
    08:00 +38°C° 0 mm 2 mps 740 mmHg 30%
    09:00 +40°C° 0 mm 3 mps 739 mmHg 26%
    10:00 +42°C° 0 mm 3 mps 739 mmHg 22%
    11:00 +44°C° 0 mm 3 mps 739 mmHg 19%
    12:00 +45°C° 0 mm 3 mps 738 mmHg 17%
    13:00 +46°C° 0 mm 3 mps 738 mmHg 15%
    14:00 +46°C° 0 mm 3 mps 737 mmHg 14%
    15:00 +46°C° 0 mm 3 mps 737 mmHg 13%
    16:00 +47°C° 0 mm 4 mps 737 mmHg 13%
    17:00 +47°C° 0 mm 4 mps 737 mmHg 12%
    18:00 +45°C° 0 mm 4 mps 737 mmHg 13%
    19:00 +44°C° 0 mm 4 mps 737 mmHg 15%
    20:00 +43°C° 0 mm 3 mps 738 mmHg 16%
    21:00 +42°C° 0 mm 4 mps 738 mmHg 18%
    22:00 +41°C° 0 mm 5 mps 738 mmHg 19%
    23:00 +40°C° 0 mm 5 mps 739 mmHg 21%
    Show more